CAPE
1 2 2 1 0 0 0 0 0 1 1 0 0 1 1 0 0 0 0 0 0 0 0 0 0 0 0 0 0 0 0 0 0 0 0 0 0 0 0 0 0 0 0 0 0
2 2 1 0 0 0 0 0 0 0 0 0 0 0 0 0 0 0 0 0 0 0 0 0 0 0 0 0 0 0 0 0 0 0 0 0 0 0 0 0 0 0 0 0 0
1 2 0 0 0 0 0 0 0 0 0 0 0 0 0 0 0 0 0 0 0 0 0 0 0 0 0 0 0 0 0 0 0 0 0 0 0 0 0 0 0 0 0 0 0
2 0 0 0 0 0 0 0 0 0 0 0 0 0 0 0 0 0 0 0 0 0 0 0 0 0 0 0 0 0 0 0 0 0 0 0 0 0 0 0 0 0 0 0 0
0 0 0 0 0 0 0 0 0 0 0 0 0 0 0 0 0 0 0 0 0 0 0 0 0 0 0 0 0 0 0 0 0 0 0 0 0 0 0 0 0 0 0 0 0
0 1 0 0 0 0 0 0 0 0 0 0 0 0 0 0 0 0 0 0 0 0 0 0 0 0 0 0 0 0 0 0 0 0 0 0 0 0 0 0 0 0 0 0 0
0 1 0 0 0 0 0 0 0 0 0 0 0 0 0 0 0 0 0 0 0 0 0 0 0 0 0 0 0 0 0 0 0 0 0 0 0 0 0 0 0 0 0 0 0
0 0 0 0 0 0 0 0 0 0 0 0 0 0 0 0 0 0 0 0 0 0 0 0 0 0 0 0 0 0 0 0 0 0 0 0 0 0 0 0 0 0 0 0 0
1 0 0 0 0 0 0 0 0 0 0 0 0 0 0 0 0 0 0 0 0 0 0 0 0 0 0 0 0 0 0 0 0 0 0 0 0 0 0 0 0 0 0 0 0
0 0 0 0 0 0 0 0 0 0 0 0 0 0 0 0 0 0 0 0 0 0 0 0 0 0 0 0 0 0 0 0 0 0 0 0 0 0 0 0 0 0 0 0 0
0 0 0 0 0 0 0 0 0 0 0 0 0 0 0 0 0 0 0 0 0 0 0 0 0 0 0 0 0 0 0 0 0 0 0 0 0 0 0 0 0 0 0 0 0
0 0 0 0 0 0 0 0 0 0 0 0 0 0 0 0 0 0 0 0 0 0 0 0 0 0 0 0 0 0 0 0 0 0 0 0 0 0 0 0 0 0 0 0 0
0 0 0 0 0 0 0 0 0 0 0 0 0 0 0 0 0 0 0 0 0 0 0 0 0 0 0 0 0 0 0 0 0 0 0 0 0 0 0 0 0 0 0 0 0
0 0 0 0 0 0 0 0 0 0 0 0 0 0 0 0 0 0 0 0 0 0 0 0 0 0 0 0 0 0 0 0 0 2 3 0 0 0 0 0 0 0 0 0 0
0 0 0 0 0 0 0 0 0 0 0 0 0 0 0 0 0 0 0 0 0 0 0 0 0 0 0 0 0 0 0 0 0 0 6 0 5 0 0 0 0 0 0 0 0
0 0 0 0 0 0 0 0 0 0 0 0 0 0 0 0 0 0 0 0 0 0 0 0 0 0 0 0 0 0 0 0 0 0 2 0 0 0 0 0 0 0 0 0 0
0 0 0 0 0 0 0 0 0 0 0 0 0 0 0 0 0 0 0 0 0 0 0 0 0 0 0 0 0 0 2 0 1 2 0 0 0 0 0 0 0 10 0 0 0
0 0 0 0 0 0 0 0 0 0 0 0 0 0 0 0 0 0 0 0 0 0 0 0 0 0 0 0 0 0 0 0 0 0 0 0 0 0 0 0 9 2 17 0 0
0 0 0 0 0 0 0 0 0 0 0 0 0 0 0 0 0 0 0 0 0 0 0 2 0 0 0 0 0 1 0 0 5 2 1 0 0 0 0 4 31 22 3 0 0
0 0 0 0 0 0 0 0 0 0 0 0 0 0 0 0 0 0 0 0 0 0 2 5 3 0 0 0 0 0 0 5 0 0 0 0 0 0 2 23 10 13 2 0 0
0 0 0 0 0 0 0 0 0 0 0 0 0 0 0 0 0 0 0 0 0 0 0 5 12 0 0 0 1 2 3 1 0 0 0 0 0 0 0 37 4 11 0 0 0
0 0 0 0 0 0 0 0 0 0 0 0 0 0 0 0 0 0 0 0 0 0 0 5 14 0 0 0 0 0 0 1 0 2 0 0 0 0 0 3 40 9 0 0 0
0 0 0 0 0 0 0 0 0 0 0 0 0 0 0 0 0 0 0 0 0 0 0 2 9 1 0 0 0 1 3 3 4 0 0 0 0 0 0 0 0 0 0 0 0
0 0 0 0 0 0 0 0 0 0 0 0 0 0 0 0 0 0 0 0 0 0 0 0 7 0 2 1 17 5 7 12 2 0 0 0 0 0 0 1 1 0 0 0 0
0 0 0 0 0 0 0 0 0 0 0 0 0 0 2 3 0 0 0 0 0 0 0 5 2 7 10 18 18 6 2 9 7 2 4 0 0 0 2 11 16 10 0 0 0
0 0 0 0 0 0 0 0 0 0 0 0 0 0 0 0 1 1 0 0 1 0 0 15 2 6 14 6 0 0 0 1 1 2 5 1 0 3 15 3 8 7 1 0 0
0 2 2 0 0 0 0 0 0 0 0 2 7 5 0 0 0 0 0 0 0 0 1 2 3 12 1 1 0 0 0 1 7 2 2 0 0 2 1 0 0 2 0 0 0
CIN
0 -0 -0 0 0 0 0 0 0 0 0 0 0 0 0 0 0 0 0 0 0 0 0 0 0 0 0 0 0 0 0 0 0 0 0 0 0 0 0 0 0 0 0 0 0
-0 0 0 0 0 0 0 0 0 0 0 0 0 0 0 0 0 0 0 0 0 0 0 0 0 0 0 0 0 0 0 0 0 0 0 0 0 0 0 0 0 0 0 0 0
0 0 0 0 0 0 0 0 0 0 0 0 0 0 0 0 0 0 0 0 0 0 0 0 0 0 0 0 0 0 0 0 0 0 0 0 0 0 0 0 0 0 0 0 0
-0 0 0 0 0 0 0 0 0 0 0 0 0 0 0 0 0 0 0 0 0 0 0 0 0 0 0 0 0 0 0 0 0 0 0 0 0 0 0 0 0 0 0 0 0
0 0 0 0 0 0 0 0 0 0 0 0 0 0 0 0 0 0 0 0 0 0 0 0 0 0 0 0 0 0 0 0 0 0 0 0 0 0 0 0 0 0 0 0 0
0 -0 0 0 0 0 0 0 0 0 0 0 0 0 0 0 0 0 0 0 0 0 0 0 0 0 0 0 0 0 0 0 0 0 0 0 0 0 0 0 0 0 0 0 0
0 -0 0 0 0 0 0 0 0 0 0 0 0 0 0 0 0 0 0 0 0 0 0 0 0 0 0 0 0 0 0 0 0 0 0 0 0 0 0 0 0 0 0 0 0
0 0 0 0 0 0 0 0 0 0 0 0 0 0 0 0 0 0 0 0 0 0 0 0 0 0 0 0 0 0 0 0 0 0 0 0 0 0 0 0 0 0 0 0 0
0 0 0 0 0 0 0 0 0 0 0 0 0 0 0 0 0 0 0 0 0 0 0 0 0 0 0 0 0 0 0 0 0 0 0 0 0 0 0 0 0 0 0 0 0
0 0 0 0 0 0 0 0 0 0 0 0 0 0 0 0 0 0 0 0 0 0 0 0 0 0 0 0 0 0 0 0 0 0 0 0 0 0 0 0 0 0 0 0 0
0 0 0 0 0 0 0 0 0 0 0 0 0 0 0 0 0 0 0 0 0 0 0 0 0 0 0 0 0 0 0 0 0 0 0 0 0 0 0 0 0 0 0 0 0
0 0 0 0 0 0 0 0 0 0 0 0 0 0 0 0 0 0 0 0 0 0 0 0 0 0 0 0 0 0 0 0 0 0 0 0 0 0 0 0 0 0 0 0 0
0 0 0 0 0 0 0 0 0 0 0 0 0 0 0 0 0 0 0 0 0 0 0 0 0 0 0 0 0 0 0 0 0 0 0 0 0 0 0 0 0 0 0 0 0
0 0 0 0 0 0 0 0 0 0 0 0 0 0 0 0 0 0 0 0 0 0 0 0 0 0 0 0 0 0 0 0 0 -2 -1 0 0 0 0 0 0 0 0 0 0
0 0 0 0 0 0 0 0 0 0 0 0 0 0 0 0 0 0 0 0 0 0 0 0 0 0 0 0 0 0 0 0 0 -1 -2 0 -1 0 0 0 0 0 0 0 0
0 0 0 0 0 0 0 0 0 0 0 0 0 0 0 0 0 0 0 0 0 0 0 0 0 0 0 0 0 0 0 0 0 0 -0 0 -1 0 0 0 0 0 0 0 0
0 0 0 0 0 0 0 0 0 0 0 0 0 0 0 0 0 0 0 0 0 0 0 0 0 0 0 0 0 0 -1 0 -1 -1 0 0 0 0 0 0 0 -152 0 0 0
0 0 0 0 0 0 0 0 0 0 0 0 0 0 0 0 0 0 0 0 0 0 0 0 0 0 0 -0 -0 -0 0 0 0 -2 0 -1 0 0 0 0 -130 -29 -146 0 0
0 0 0 0 0 0 0 0 0 0 0 0 0 0 0 0 0 0 0 0 0 0 -0 -1 0 0 0 0 0 -1 0 0 -0 -1 -0 0 0 0 0 -102 -77 -47 -70 0 0
0 0 0 0 0 0 0 0 0 0 0 0 0 0 0 0 0 0 0 0 0 0 -26 -5 -1 0 0 0 0 0 0 -0 0 0 -0 0 0 0 -27 -43 -79 -65 -91 0 0
0 0 0 0 0 0 0 0 0 0 0 0 0 0 0 0 0 0 0 0 0 0 0 -22 -0 0 0 0 -1 -1 -1 -0 0 0 0 0 0 0 -6 -35 -54 -69 0 0 0
0 0 0 0 0 0 0 0 0 0 0 0 0 0 0 0 0 0 0 0 0 0 0 -9 -1 -0 0 0 0 0 -1 0 0 -1 0 0 0 0 0 -118 -85 -122 0 0 0
0 0 0 0 0 0 0 0 0 0 0 0 0 0 0 0 0 0 0 0 0 0 0 -4 -0 0 -1 0 -1 0 0 -0 0 0 0 0 0 0 0 -16 0 0 0 0 0
0 0 0 0 0 0 0 0 0 0 0 0 0 0 0 0 -0 0 0 0 0 0 0 -0 -0 -0 -0 -2 -4 -3 -0 -1 -5 0 -1 0 0 0 -2 -3 -1 0 0 0 0
0 0 0 0 0 0 0 0 0 0 0 0 0 0 -0 -0 0 0 0 0 0 0 0 -0 -0 -0 -0 -0 -0 -0 -0 -0 -0 -1 -0 -0 0 0 -1 -1 -0 -0 0 0 -41
0 0 0 0 0 0 0 0 0 0 0 0 0 0 0 0 -0 -0 0 -0 -0 0 0 -3 0 -2 -0 -1 -1 0 0 -0 -1 -0 0 0 0 -1 -0 -12 -0 -1 -0 0 0
0 -7 -1 0 0 0 0 0 0 0 0 -3 -3 -4 0 0 0 -0 0 0 0 -0 -0 -0 0 -2 -4 -1 0 0 0 -2 -0 -0 -0 0 0 0 0 0 -0 -0 -0 0 0
Wind_Speed
19 22 20 18 16 15 16 19 22 23 22 12 8 11 15 18 22 23 24 20 19 22 22 18 21 18 17 18 17 16 21 25 25 24 25 24 32 28 29 36 33 29 36 35 34
13 15 17 17 14 12 6 14 19 17 14 11 14 18 19 21 22 27 23 20 21 24 23 24 23 20 20 19 19 20 23 24 22 23 29 31 30 35 33 35 37 37 35 30 32
10 6 9 7 4 5 5 11 16 16 18 21 22 23 21 17 21 25 22 22 22 24 23 23 22 21 20 20 21 21 25 22 25 26 28 31 31 29 33 36 35 37 38 36 33
13 7 0 2 3 3 3 7 14 16 17 19 22 25 24 20 23 22 22 23 23 23 23 25 24 22 22 22 22 25 23 23 25 27 30 33 33 32 34 36 36 37 38 38 37
20 14 6 3 2 3 6 11 17 19 21 23 26 28 22 25 24 22 22 23 23 25 25 26 27 23 24 23 25 24 24 25 27 31 33 33 34 35 34 32 33 34 34 33 35
22 18 11 6 3 7 14 18 19 20 21 22 26 26 22 27 22 24 22 23 24 24 24 23 25 23 22 24 25 25 29 31 28 27 26 29 30 28 28 30 31 30 32 32 32
27 24 20 12 8 15 18 20 20 19 20 21 24 24 24 25 22 23 22 23 22 23 24 22 21 23 23 25 21 24 30 27 20 23 27 27 32 27 22 26 30 32 33 36 35
31 28 24 6 21 20 19 19 20 19 19 20 21 21 23 21 22 23 22 23 21 20 21 21 19 20 20 21 22 26 23 26 24 26 24 27 33 26 25 31 37 38 38 38 38
32 28 26 29 25 24 23 23 21 19 19 20 20 20 24 23 23 21 19 22 23 22 23 21 21 22 21 25 26 21 28 30 31 24 28 26 37 25 34 36 36 37 38 40 41
34 31 30 30 26 25 26 23 21 20 20 18 21 19 23 26 22 19 18 19 22 25 26 26 25 24 23 28 30 29 32 32 33 26 32 37 39 32 36 38 39 38 38 40 43
37 34 33 30 26 25 24 22 24 20 22 20 20 20 23 26 19 22 19 20 21 24 31 28 31 29 28 27 26 27 32 36 30 30 27 27 20 36 38 39 40 39 38 39 42
40 37 34 29 26 24 25 27 24 20 20 20 18 19 23 23 25 27 20 20 23 28 29 31 30 24 24 25 26 30 38 37 32 25 26 29 27 37 40 41 40 37 38 40 42
41 36 33 26 23 25 27 26 21 19 21 19 20 21 27 22 23 28 21 22 23 29 33 29 22 24 24 25 29 32 34 37 24 19 20 25 28 33 36 37 34 36 39 40 42
39 36 32 24 22 25 25 24 22 17 21 20 22 21 26 23 24 25 21 21 25 29 29 22 20 24 21 20 20 27 26 31 28 23 27 22 41 32 37 29 35 31 34 35 39
39 36 27 24 23 26 24 24 19 19 26 23 20 20 25 24 22 25 21 22 22 21 21 25 23 23 21 20 25 25 28 29 25 23 25 20 25 13 31 39 28 28 29 31 34
40 38 23 22 21 22 25 21 20 23 23 23 21 31 29 23 20 20 21 23 20 22 22 22 19 16 17 19 29 26 26 28 20 19 24 16 12 35 26 26 27 27 27 28 31
41 34 23 21 26 22 21 22 24 25 23 22 26 30 27 24 23 21 25 24 22 25 30 28 22 17 16 22 27 24 27 30 26 22 25 20 11 19 29 26 30 29 29 29 30
44 26 21 23 23 20 21 25 26 23 23 23 25 30 24 25 24 24 23 23 19 21 26 29 30 24 18 16 17 28 20 23 27 25 23 17 11 6 25 20 22 28 29 30 30
40 25 24 29 23 21 25 26 24 24 23 25 26 22 23 25 26 24 24 20 20 19 27 25 24 22 14 17 15 21 20 19 20 16 19 14 12 6 11 8 18 28 27 29 30
33 26 28 32 23 23 25 25 23 22 25 22 23 21 25 30 27 26 23 18 21 18 20 21 22 21 20 16 12 5 18 21 20 22 22 17 14 11 9 8 21 26 26 28 29
29 27 28 32 22 26 26 26 24 22 23 21 21 22 24 28 26 24 20 20 18 23 19 21 19 19 22 19 14 13 17 18 19 14 19 19 12 11 8 6 27 28 28 30 29
30 29 29 28 27 25 27 26 25 22 21 21 20 21 24 29 25 22 17 20 22 22 24 20 21 20 18 15 11 6 12 19 19 20 12 13 8 4 5 10 18 32 33 33 31
33 26 25 27 27 29 27 27 22 24 24 23 21 23 24 26 28 22 21 21 21 20 20 24 21 26 25 19 18 16 18 15 15 14 8 9 7 12 13 18 32 39 38 37 34
30 31 28 26 24 30 29 25 26 21 23 24 23 20 27 30 24 25 23 20 22 21 17 14 16 16 20 18 17 15 14 12 11 14 11 9 17 19 12 27 36 38 37 38 36
29 29 28 31 28 29 24 25 25 25 21 25 23 18 31 30 37 25 24 23 24 20 18 15 19 16 14 15 16 16 14 11 12 12 11 13 13 18 37 37 30 29 33 36 36
30 30 28 28 25 26 23 24 23 23 25 28 21 20 31 32 28 32 33 28 21 23 19 18 22 21 19 19 17 19 13 5 5 6 9 12 13 19 36 37 33 33 33 35 35
28 26 27 26 26 26 24 22 22 28 26 23 23 31 39 34 29 26 21 18 17 17 17 19 21 25 28 25 25 19 17 15 20 20 19 12 16 30 21 36 35 35 34 33 33
Wind_Direction
322 51 57 62 69 69 68 55 44 42 49 87 102 103 89 67 50 42 22 32 28 12 6 11 359 1 356 345 341 336 311 303 302 300 299 304 292 293 291 286 285 281 275 277 279
320 66 65 66 73 81 120 73 54 63 75 87 76 60 39 33 42 24 32 35 22 8 4 352 346 347 340 337 334 323 311 307 308 305 299 301 301 293 290 286 281 280 277 278 276
326 66 79 94 134 128 115 79 62 61 54 40 37 31 32 37 29 17 24 21 15 7 5 1 353 349 339 337 331 324 313 314 307 305 303 300 300 300 292 284 284 279 275 274 275
325 310 259 136 146 161 149 87 62 56 54 49 32 16 22 32 15 17 18 14 11 6 6 357 352 344 338 330 331 318 318 315 311 306 302 297 298 294 291 289 288 280 275 272 269
325 312 285 248 176 129 95 70 50 45 35 27 12 358 26 31 28 16 16 13 11 8 2 360 352 346 335 332 328 322 320 317 314 306 301 299 295 293 290 293 289 285 277 273 267
325 314 293 262 144 88 59 47 42 39 33 29 20 16 35 24 25 19 20 17 14 8 4 4 356 353 343 332 327 325 318 314 316 315 310 303 301 299 295 297 288 287 279 273 270
327 322 310 282 81 55 44 37 36 39 35 26 21 29 34 27 25 18 21 17 18 15 7 10 6 353 344 333 341 332 321 323 335 330 317 315 300 295 303 298 291 286 282 274 269
333 329 323 319 40 39 38 35 35 38 36 32 27 29 31 30 21 18 23 20 22 21 13 8 7 360 354 345 339 326 331 322 324 324 324 317 294 297 304 300 287 283 278 274 268
335 332 329 7 27 31 31 32 39 44 38 32 29 25 23 18 16 22 25 16 12 12 10 9 3 356 355 340 335 336 321 318 317 326 320 315 295 304 295 293 290 283 277 272 268
339 335 340 3 23 30 29 38 40 41 35 35 31 26 18 9 14 18 20 15 7 2 2 2 356 350 350 340 327 326 320 317 314 325 319 307 257 301 291 288 284 283 279 272 266
340 339 346 5 22 30 34 35 29 31 30 30 25 25 14 11 23 20 22 13 9 2 348 357 347 343 342 340 332 325 319 314 320 320 319 316 286 302 293 284 282 280 278 272 266
342 342 349 10 25 34 31 26 30 31 24 29 27 19 14 16 15 15 24 13 5 356 354 349 344 355 348 341 335 323 309 317 324 329 324 318 310 309 291 282 281 279 276 271 264
339 337 4 19 31 28 25 25 30 34 19 24 26 19 13 22 16 9 18 16 6 355 350 349 352 355 351 342 332 318 315 321 324 325 324 319 308 311 296 284 284 279 275 270 262
332 332 3 22 26 23 20 23 21 34 17 21 16 19 16 21 14 22 27 20 5 357 359 5 6 357 353 350 349 332 337 334 340 343 337 344 315 314 292 288 287 283 278 274 263
328 330 16 26 21 14 17 16 34 29 4 12 16 24 12 13 10 18 25 19 12 16 16 4 0 0 6 6 342 337 335 339 341 340 338 333 327 286 292 282 287 288 288 280 271
328 342 19 22 21 19 14 27 27 14 10 12 12 359 3 14 17 18 22 21 22 16 17 9 11 22 17 1 336 341 341 343 351 348 343 338 329 277 292 293 288 292 293 290 280
326 358 24 22 8 12 19 17 9 9 9 9 3 359 2 10 12 18 16 20 23 13 7 11 16 23 23 4 347 349 343 346 355 358 349 3 354 269 298 300 292 292 291 294 285
325 8 20 18 12 20 19 7 3 5 3 1 360 355 5 10 12 13 15 20 28 22 11 10 6 12 16 4 355 335 349 349 351 353 349 357 360 18 321 320 310 301 293 293 287
356 14 16 9 19 21 6 1 2 2 3 357 354 4 4 7 6 11 12 21 25 26 14 9 9 358 4 11 11 352 347 359 348 348 354 2 2 355 357 359 324 297 294 299 296
2 8 7 3 16 12 3 360 0 3 356 359 356 358 354 353 2 5 11 24 19 26 18 12 357 14 13 5 27 5 358 353 359 358 354 3 351 357 20 37 273 273 282 285 288
6 2 5 4 16 4 360 358 358 359 0 358 352 347 349 351 356 360 9 9 22 12 18 10 15 7 5 11 2 9 352 349 354 357 353 350 2 15 27 65 290 283 281 280 282
3 356 4 9 0 5 359 358 357 360 1 357 353 346 343 342 351 358 4 5 6 8 6 17 5 359 351 352 7 358 348 339 348 353 354 352 306 3 10 0 329 282 278 274 267
351 357 9 9 358 355 356 353 358 356 355 355 350 345 343 344 344 352 350 1 357 2 8 6 8 359 4 19 17 5 350 339 333 341 326 338 326 10 346 331 301 281 273 269 263
352 347 356 9 7 355 352 354 351 357 351 350 345 344 333 334 342 341 339 357 2 353 344 0 357 353 348 342 342 324 321 318 323 334 331 284 265 262 265 252 273 275 261 263 260
350 344 350 346 351 352 353 349 348 349 352 348 346 341 333 331 327 339 346 343 341 346 3 4 349 345 336 334 333 317 306 312 252 247 277 276 284 276 284 277 257 249 257 268 265
343 342 344 342 350 349 351 348 347 347 345 337 332 334 330 325 325 325 330 336 339 349 357 357 345 348 344 344 341 331 320 315 289 294 326 348 288 346 318 295 295 275 263 259 265
345 345 340 341 345 345 346 346 345 341 339 338 331 325 321 324 324 324 315 291 297 313 326 340 348 349 346 356 348 3 11 4 344 340 342 322 296 351 350 307 287 273 260 251 251